Markham, Ontario

9:20 AM EDT on May 24, 2017 (GMT -0400)
Markham

Weather History for CYKZ - August, 2013

Change the Weather History Date:

Sunday, August 18, 2013

  Actual Average Record
Temperature  
Mean Temperature 66 °F -  
Max Temperature 80 °F 75 °F 87 °F (2008)
Min Temperature 53 °F 56 °F 50 °F (2007)
Cooling Degree Days 2    
Growing Degree Days 16 (Base 50)    
Moisture  
Dew Point 57 °F    
Average Humidity 68    
Maximum Humidity 100    
Minimum Humidity 38    
Precipitation  
Precipitation 0.00 in - - ()
Sea Level Pressure  
Sea Level Pressure 30.20 in    
Wind  
Wind Speed 3 mph ()    
Max Wind Speed 9 mph    
Max Gust Speed -    
Visibility 14.8 miles    
Events      
Averages and records for this station are not official NWS values.
T = Trace of Precipitation, MM = Missing Value Source: Averaged Metar Reports

Daily Weather History Graph

Daily Weather History Graph

Search for Another Location

Airport or City:

Trip Planner

Search our weather history database for the weather conditions in past years. The results will help you decide how hot, cold, wet, or windy it might be!

Date:

Astronomy

Aug. 18, 2013 Rise Set
Actual Time 6:25 AM EDT 8:16 PM EDT
Civil Twilight 5:54 AM EDT 8:47 PM EDT
Nautical Twilight 5:16 AM EDT 9:24 PM EDT
Astronomical Twilight 4:35 AM EDT 10:05 PM EDT
Moon 6:23 PM EDT (8/18) 3:29 AM EDT (8/18)
Length of Visible Light 14h 52m
Length of Day
13h 51m
Waxing Gibbous, 92% of the Moon is Illuminated
Aug 18
Waxing Gibbous
Aug 20
Full
Aug 28
Last Quarter
Sep 5
New
Sep 12
First Quarter

Hourly Weather History & Observations

Time (EDT) Temp. Heat Index Dew Point Humidity Pressure Visibility Wind Dir Wind Speed Gust Speed Precip Events Conditions
12:00 AM 59.0 °F - 55.4 °F 88% 30.26 in 15.0 mi North 2.3 mph - N/A   Clear
1:00 AM 59.0 °F - 55.4 °F 88% 30.26 in 15.0 mi North 2.3 mph - N/A   Partly Cloudy
2:00 AM 57 °F - 54 °F 88% 30.25 in 15 mi NNW 2.3 mph - -   Clear
2:00 AM 57.2 °F - 53.6 °F 88% 30.25 in 15.0 mi NNW 2.3 mph - N/A   Partly Cloudy
3:00 AM 57.2 °F - 53.6 °F 88% 30.24 in 15.0 mi NNW 2.3 mph - N/A   Partly Cloudy
4:00 AM 57.2 °F - 55.4 °F 94% 30.24 in 15.0 mi Calm Calm - N/A   Partly Cloudy
5:00 AM 55.4 °F - 53.6 °F 94% 30.24 in 15.0 mi Calm Calm - N/A   Clear
6:00 AM 53.6 °F - 53.6 °F 100% 30.25 in 12.0 mi NNW 4.6 mph - N/A   Partly Cloudy
7:00 AM 55.4 °F - 55.4 °F 100% 30.25 in 12.0 mi North 3.5 mph - N/A   Partly Cloudy
8:00 AM 63 °F - 58 °F 80% 30.25 in 15 mi North 2.3 mph - -   Scattered Clouds
8:00 AM 62.6 °F - 59.0 °F 88% 30.25 in 15.0 mi North 3.5 mph - N/A   Partly Cloudy
9:00 AM 68.0 °F - 60.8 °F 78% 30.26 in 15.0 mi NE 3.5 mph - N/A   Partly Cloudy
10:00 AM 73.4 °F - 59.0 °F 61% 30.25 in 15.0 mi Calm Calm - N/A   Scattered Clouds
11:00 AM 75.2 °F - 59.0 °F 57% 30.25 in 15.0 mi ESE 3.5 mph - N/A   Scattered Clouds
12:00 PM 77.0 °F - 59.0 °F 54% 30.23 in 15.0 mi South 3.5 mph - N/A   Scattered Clouds
1:00 PM 78.8 °F - 57.2 °F 47% 30.21 in 15.0 mi ESE 8.1 mph - N/A   Scattered Clouds
2:00 PM 78 °F - 57 °F 38% 30.19 in 15 mi South 4.6 mph - -   Scattered Clouds
2:00 PM 78.8 °F - 57.2 °F 47% 30.19 in 15.0 mi South 3.5 mph - N/A   Scattered Clouds
3:00 PM 78.8 °F - 55.4 °F 44% 30.17 in 15.0 mi SE 8.1 mph - N/A   Mostly Cloudy
4:00 PM 80.6 °F 80.8 °F 57.2 °F 45% 30.16 in 15.0 mi SW 2.3 mph - N/A   Scattered Clouds
5:00 PM 78.8 °F - 57.2 °F 47% 30.15 in 15.0 mi South 6.9 mph - N/A   Scattered Clouds
6:00 PM 77.0 °F - 55.4 °F 47% 30.14 in 15.0 mi SSE 4.6 mph - N/A   Partly Cloudy
7:00 PM 77.0 °F - 55.4 °F 47% 30.13 in 15.0 mi South 9.2 mph - N/A   Partly Cloudy
8:00 PM 74 °F - 56 °F 43% 30.12 in 15 mi South 5.8 mph - -   Scattered Clouds
8:00 PM 73.4 °F - 55.4 °F 53% 30.12 in 15.0 mi South 5.8 mph - N/A   Partly Cloudy
9:00 PM 71.6 °F - 57.2 °F 60% 30.12 in 15.0 mi South 4.6 mph - N/A   Partly Cloudy
10:00 PM 69.8 °F - 57.2 °F 64% 30.12 in 15.0 mi South 3.5 mph - N/A   Partly Cloudy
11:00 PM 68.0 °F - 60.8 °F 78% 30.12 in 15.0 mi South 3.5 mph - N/A   Partly Cloudy